(235457) = 2003 YP153 = 2005 GQ45

Discovered at Socorro on 2003-12-29 by LINEAR.

Orbit

Orbit type: Main Belt

Note: WebGL enabled browser required.

epoch2023-09-13.0
epoch JD2460200.5
perihelion date2020-01-17.23066
perihelion JD2458865.73066
argument of perihelion (°)24.42996
ascending node (°)51.67122
inclination (°)16.32608
eccentricity0.1207698
perihelion distance (AU)2.7156043
Tisserand w.r.t. Jupiter3.2
ΔV w.r.t. Earth (km/sec)11.5
semimajor axis (AU)3.0886160
mean anomaly (°)242.36181
mean daily motion (°/day)0.18157580
aphelion distance (AU)3.462
period (years)5.43
P-vector [x]0.25329032
P-vector [y]0.83488535
P-vector [z]0.48868237
Q-vector [x]-0.94192183
Q-vector [y]0.09769194
Q-vector [z]0.32130913
absolute magnitude15.24
phase slope0.15
uncertainty0
referenceMPEC 2023-Q78
observations used530
oppositions14
arc length (days)8950
first opposition used1999
last opposition used2023
residual rms (arc-secs)0.77
perturbers coarse indicatorM-v
perturbers precise indicator003Ek
first observation date used1999-02-18.0
last observation date used2023-08-21.0
computer nameMPCLINUX
JD of orbit computation2456612.530210
perihelion JD uncertainty (days)4.6908E-04
argument of perihelion uncertainty (°)8.7299E-05
ascending node uncertainty (°)2.6046E-05
inclination uncertainty (°)1.5416E-05
eccentricity uncertainty 1.5328E-07
perihelion distance uncertainty (AU)5.3443E-07
Minimum Orbit Intersection Distances (in AU)
for orbit epoch: 2460200.5, reference: E2023-Q78
Mercury2.40866
Venus2.00066
Earth1.73627
Mars1.19442
Jupiter1.9237
Saturn6.38645
Uranus15.3406
Neptune26.9862

Observations

552 total observations over interval: 1999 02 18.21337 – 2023 08 21.321110
These data are available for download (format description).

Date (UT) J2000 RA J2000 Dec Magn Location Ref
1999 02 18.21337 10 21 19.74 +36 13 16.7 19.7   704 – Lincoln Laboratory ETS, New Mexico MPS 131702
1999 02 18.23469 10 21 18.28 +36 13 24.0 19.1   704 – Lincoln Laboratory ETS, New Mexico MPS 131702
1999 02 18.25616 10 21 17.19 +36 13 29.8 19.6   704 – Lincoln Laboratory ETS, New Mexico MPS 131702
1999 02 18.27741 10 21 15.72 +36 13 34.3 19.5   704 – Lincoln Laboratory ETS, New Mexico MPS 131702
2002 10 08.19596 00 18 37.33 -18 00 07.1 19.2   644 – Palomar Mountain/NEAT MPS 131702
2002 10 08.21699 00 18 36.22 -18 00 06.8 20.3   644 – Palomar Mountain/NEAT MPS 131702
2002 10 08.23817 00 18 35.11 -18 00 06.4 19.1   644 – Palomar Mountain/NEAT MPS 131702
2003 12 17.27087 06 56 34.93 +40 07 04.7 19.8   704 – Lincoln Laboratory ETS, New Mexico MPS 96426
2003 12 17.28399 06 56 34.23 +40 07 11.0 19.2   704 – Lincoln Laboratory ETS, New Mexico MPS 96426
2003 12 17.29711 06 56 33.42 +40 07 16.5 19.2   704 – Lincoln Laboratory ETS, New Mexico MPS 96426
2003 12 17.31057 06 56 32.63 +40 07 22.9 19.7   704 – Lincoln Laboratory ETS, New Mexico MPS 96426
2003 12 17.32366 06 56 31.84 +40 07 28.6 19.7   704 – Lincoln Laboratory ETS, New Mexico MPS 96426
2003 12 29.27920 06 43 58.47 +41 22 05.0 19.1   704 – Lincoln Laboratory ETS, New Mexico MPS 96426
2003 12 29.29289 06 43 57.58 +41 22 08.9 19.1   704 – Lincoln Laboratory ETS, New Mexico MPS 96426
2003 12 29.30648 06 43 56.62 +41 22 13.5 19.3   704 – Lincoln Laboratory ETS, New Mexico MPS 96426
2003 12 29.32026 06 43 55.63 +41 22 18.0 19.1   704 – Lincoln Laboratory ETS, New Mexico MPS 96426
2003 12 29.33387 06 43 54.77 +41 22 21.1 19.3   704 – Lincoln Laboratory ETS, New Mexico MPS 96426
2004 01 02.25745 06 39 31.09 +41 40 34.4 18.8   704 – Lincoln Laboratory ETS, New Mexico MPS 96426
2004 01 02.28205 06 39 29.22 +41 40 40.9 19.1   704 – Lincoln Laboratory ETS, New Mexico MPS 96426
2004 01 02.29428 06 39 28.46 +41 40 44.7 19.3   704 – Lincoln Laboratory ETS, New Mexico MPS 96426
2005 03 10.33610 13 20 21.66 +09 10 13.5 19.9 R 703 – Catalina Sky Survey MPS 131703
2005 03 10.34554 13 20 21.22 +09 10 18.1 19.7 R 703 – Catalina Sky Survey MPS 131703
2005 03 10.35502 13 20 20.86 +09 10 20.6 19.6 R 703 – Catalina Sky Survey MPS 131703
2005 03 10.36444 13 20 20.47 +09 10 22.2 19.3 R 703 – Catalina Sky Survey MPS 131703
2005 03 10.40972 13 20 18.73 +09 10 32.7 19.9 R 703 – Catalina Sky Survey MPS 131703
2005 03 10.41968 13 20 18.32 +09 10 34.3 19.0 R 703 – Catalina Sky Survey MPS 131703
2005 03 10.42957 13 20 17.92 +09 10 36.9 19.4 R 703 – Catalina Sky Survey MPS 131703
2005 03 10.43943 13 20 17.54 +09 10 38.4 19.0 R 703 – Catalina Sky Survey MPS 131703
2005 03 30.36832 13 05 09.40 +10 12 00.8 19.6 R 703 – Catalina Sky Survey MPS 131703
2005 03 30.37758 13 05 08.89 +10 12 02.9 18.8 R 703 – Catalina Sky Survey MPS 131703
2005 03 30.38694 13 05 08.49 +10 12 06.4 19.7 R 703 – Catalina Sky Survey MPS 131703
2005 03 30.39640 13 05 07.84 +10 12 07.1 18.5 R 703 – Catalina Sky Survey MPS 131703
2005 04 05.35153 13 00 02.33 +10 23 09.9 19.6   644 – Palomar Mountain/NEAT MPS 130907
2005 04 05.37911 13 00 00.89 +10 23 12.9 19.2   644 – Palomar Mountain/NEAT MPS 130907
2005 04 05.40058 12 59 59.78 +10 23 14.6 19.2   644 – Palomar Mountain/NEAT MPS 130907
2005 04 06.26107 12 59 15.75 +10 24 26.6 19.5 R 703 – Catalina Sky Survey MPS 130907
2005 04 06.26859 12 59 15.25 +10 24 28.5 19.8 R 703 – Catalina Sky Survey MPS 130907
2005 04 06.27612 12 59 14.89 +10 24 29.8 19.6 R 703 – Catalina Sky Survey MPS 130907
2005 04 06.28365 12 59 14.42 +10 24 29.9 19.1 R 703 – Catalina Sky Survey MPS 130907
2008 10 19.37113 03 39 27.81 +16 58 05.3 19.7 V 691 – Steward Observatory, Kitt Peak-Spacewatch MPS 260568
2008 10 19.38874 03 39 27.07 +16 58 08.4 19.4 V 691 – Steward Observatory, Kitt Peak-Spacewatch MPS 260568
2008 10 19.40635 03 39 26.36 +16 58 12.2 19.9 V 691 – Steward Observatory, Kitt Peak-Spacewatch MPS 260568
2008 10 23.31889 03 36 38.48 +17 09 14.4 19.5 V 691 – Steward Observatory, Kitt Peak-Spacewatch MPS 260568
2008 10 23.33652 03 36 37.66 +17 09 17.8 19.4 V 691 – Steward Observatory, Kitt Peak-Spacewatch MPS 260568
2008 10 23.35416 03 36 36.85 +17 09 20.8 19.2 V 691 – Steward Observatory, Kitt Peak-Spacewatch MPS 260568
2008 10 27.29008 03 33 27.69 +17 20 00.9 20.4 V 691 – Steward Observatory, Kitt Peak-Spacewatch MPS 261466
2008 10 27.29255 03 33 27.60 +17 20 01.1 19.5 V 691 – Steward Observatory, Kitt Peak-Spacewatch MPS 261466
2008 10 27.30775 03 33 26.78 +17 20 03.6 19.2 V 691 – Steward Observatory, Kitt Peak-Spacewatch MPS 261466
2008 10 27.31022 03 33 26.68 +17 20 03.9 19.2 V 691 – Steward Observatory, Kitt Peak-Spacewatch MPS 261466
2008 10 27.31974 03 33 26.16 +17 20 05.8 19.4   704 – Lincoln Laboratory ETS, New Mexico MPS 261466
2008 10 27.32543 03 33 25.87 +17 20 06.5 19.1 V 691 – Steward Observatory, Kitt Peak-Spacewatch MPS 261466
2008 10 27.32790 03 33 25.75 +17 20 06.9 19.2 V 691 – Steward Observatory, Kitt Peak-Spacewatch MPS 261466
2008 10 27.33138 03 33 25.57 +17 20 07.2 19.4   704 – Lincoln Laboratory ETS, New Mexico MPS 261466
2008 10 27.35480 03 33 24.24 +17 20 11.8 19.6   704 – Lincoln Laboratory ETS, New Mexico MPS 261466
2008 10 31.23786 03 30 00.52 +17 30 15.0   691 – Steward Observatory, Kitt Peak-Spacewatch MPS 261466
2008 10 31.25442 03 29 59.54 +17 30 18.8 19.6   704 – Lincoln Laboratory ETS, New Mexico MPS 263158
2008 10 31.25554 03 29 59.51 +17 30 19.1   691 – Steward Observatory, Kitt Peak-Spacewatch MPS 261466
2008 10 31.26604 03 29 58.87 +17 30 20.8 19.5   704 – Lincoln Laboratory ETS, New Mexico MPS 263158
2008 10 31.27321 03 29 58.53 +17 30 20.8   691 – Steward Observatory, Kitt Peak-Spacewatch MPS 261466
2008 10 31.27779 03 29 58.25 +17 30 23.0 19.4   704 – Lincoln Laboratory ETS, New Mexico MPS 263158
2008 10 31.28964 03 29 57.52 +17 30 24.5 19.7   704 – Lincoln Laboratory ETS, New Mexico MPS 263158
2008 10 31.30164 03 29 56.85 +17 30 26.2 19.6   704 – Lincoln Laboratory ETS, New Mexico MPS 263158
2008 11 07.30612 03 23 16.04 +17 47 33.0 18.9 V 703 – Catalina Sky Survey MPS 264581
2008 11 07.31478 03 23 15.50 +17 47 34.1 19.2 V 703 – Catalina Sky Survey MPS 264581
2008 11 07.32344 03 23 14.96 +17 47 35.7 18.9 V 703 – Catalina Sky Survey MPS 264581
2008 11 07.33207 03 23 14.42 +17 47 36.7 18.8 V 703 – Catalina Sky Survey MPS 264581
2008 11 08.25237 03 22 19.67 +17 49 45.9 19.3 V 691 – Steward Observatory, Kitt Peak-Spacewatch MPS 264581
2008 11 08.27292 03 22 18.42 +17 49 49.0 18.9 V 691 – Steward Observatory, Kitt Peak-Spacewatch MPS 264581
2008 11 08.29054 03 22 17.33 +17 49 51.6 18.7 V 691 – Steward Observatory, Kitt Peak-Spacewatch MPS 264581
2008 11 09.25975 03 21 19.19 +17 52 06.2 19.3 V 691 – Steward Observatory, Kitt Peak-Spacewatch MPS 264581
2008 11 09.27735 03 21 18.10 +17 52 08.7 18.9 V 691 – Steward Observatory, Kitt Peak-Spacewatch MPS 264581
2008 11 09.29496 03 21 17.01 +17 52 11.3 18.8 V 691 – Steward Observatory, Kitt Peak-Spacewatch MPS 264581
2008 11 17.96855 03 12 29.13 +18 11 26.3 18.4 V J75 – OAM Observatory, La Sagra MPS 265214
2008 11 17.98162 03 12 28.28 +18 11 27.4 19.0 V J75 – OAM Observatory, La Sagra MPS 265214
2008 11 17.99466 03 12 27.47 +18 11 29.1 18.4 V J75 – OAM Observatory, La Sagra MPS 265214
2008 11 18.18267 03 12 16.27 +18 11 53.6 18.9 V 703 – Catalina Sky Survey MPS 265214
2008 11 18.18996 03 12 15.84 +18 11 55.1 18.9 V 703 – Catalina Sky Survey MPS 265214
2008 11 18.19718 03 12 15.33 +18 11 55.7 19.2 V 703 – Catalina Sky Survey MPS 265214
2008 11 18.20442 03 12 14.90 +18 11 57.2 18.9 V 703 – Catalina Sky Survey MPS 265214
2008 11 19.32185 03 11 07.15 +18 14 20.5 18.9   704 – Lincoln Laboratory ETS, New Mexico MPS 265214
2008 11 19.33434 03 11 06.37 +18 14 21.8 19.3   704 – Lincoln Laboratory ETS, New Mexico MPS 265214
2008 11 19.34678 03 11 05.59 +18 14 23.4 19.9   704 – Lincoln Laboratory ETS, New Mexico MPS 265214
2008 11 19.35941 03 11 04.77 +18 14 24.3 19.0   704 – Lincoln Laboratory ETS, New Mexico MPS 265214
2008 11 19.37207 03 11 04.00 +18 14 26.9 19.4   704 – Lincoln Laboratory ETS, New Mexico MPS 265214
2008 11 19.83872 03 10 36.25 +18 15 25.3 18.7 V 104 – San Marcello Pistoiese MPS 265214
